Regional Weather Roundup
Issued by NWS

Home | Current Version | Previous Version | Graphics & Text | Print | Product List | Glossary On
Versions: 1 2 3 4 5 6 7 8 9 10 11 12 13 14 15 16 17 18 19 20 21 22 23 24 25 26 27 28 29 30 31 32 33 34 35 36 37 38 39 40 41 42 43 44 45 46 47 48 49 50
000
ASUS43 KDMX 291501
RWRIA

WEATHER ROUNDUP FOR IOWA
NATIONAL WEATHER SERVICE DES MOINES IA
1000 AM CDT WED MAR 29 2017

NOTE: "FAIR" INDICATES FEW OR NO CLOUDS BELOW 12,000 FEET WITH NO
SIGNIFICANT WEATHER AND/OR OBSTRUCTIONS TO VISIBILITY.

* - THESE STATIONS ARE NOT NWS STATIONS...THUS NOT UNDER NWS
QUALITY CONTROL.  THEY ALSO DO NOT REPORT WEATHER SUCH
AS PRECIPITATION OR FOG.

IAZ001>003-012>014-020>022-031>034-043>046-291600-
   NORTHWEST IOWA

CITY           SKY/WX    TMP DP  RH WIND       PRES   REMARKS
CARROLL *      LGT RAIN  43  43 100 E16G24    30.06F
CHEROKEE *     DRIZZLE   43  42  96 NE7       30.11S
DENISON *      CLOUDY    43  43 100 E15G25    30.07R FOG
LE MARS *      LGT RAIN  45  43  93 E13G23    30.12F
ORANGE CITY *  LGT RAIN  43  43 100 E14       30.11F
SHELDON *      CLOUDY    45  41  87 E16       30.12F
SIOUX CITY     LGT RAIN  45  44  97 NE12      30.08F
SPENCER        LGT RAIN  44  40  85 E15       30.16S
STORM LAKE *   MIX PCPN  43  41  93 E10       30.09F
$$

IAZ055>058-069>071-079>083-090>094-291600-
   SOUTHWEST IOWA

CITY           SKY/WX    TMP DP  RH WIND       PRES   REMARKS
ATLANTIC *     RAIN      43  43 100 E14G20    30.02S
AUDUBON *      LGT RAIN  43  39  87 NE17G23   30.04F
CLARINDA *     CLOUDY    45  45 100 NE15G22   29.97F FOG
COUNCIL BLFS * CLOUDY    43  43 100 MISG      30.00S
CRESTON *      CLOUDY    41  41 100 E22       29.99S FOG
HARLAN  *      LGT RAIN  43  43 100 E18G26    30.05F
LAMONI         LGT RAIN  43  41  93 E17G26    29.96F FOG
RED OAK *      MIX PCPN  45  43  93 NE17      29.98F
SHENANDOAH *   MIX PCPN  45  43  93 NE20G25   29.95F
$$

IAZ047>049-059>061-072>074-084-291600-
   CENTRAL IOWA

CITY           SKY/WX    TMP DP  RH WIND       PRES   REMARKS
AMES           RAIN      40  40 100 E10       30.09F FOG     WCI  33
ANKENY *       LGT RAIN  41  39  93 E10       30.09R
BOONE *        MIX PCPN  39  39 100 E20G25    30.08S WCI  30
CHARITON *     CLOUDY    41  39  93 E14       30.03S
DES MOINES     LGT RAIN  42  40  92 E12G20    30.07R FOG
GRINNELL*      LGT RAIN  41  40  97 E18       30.10S
MARSHALLTOWN   LGT RAIN  41  40  96 E16G22    30.10F FOG
NEWTON *       CLOUDY    41  41 100 E18       30.08S FOG
PELLA *        CLOUDY    42  40  95 E10       30.08R
PERRY *        LGT RAIN  42  40  95 NE12G21   30.07R
$$

IAZ004>006-015-016-023>025-035-036-291600-
   NORTH CENTRAL IOWA

CITY           SKY/WX    TMP DP  RH WIND       PRES   REMARKS
ALGONA *       LGT RAIN  43  41  93 NE12      30.15S
CLARION *      CLOUDY    41  41 100 E20       30.13F
ESTHERVILLE    LGT RAIN  43  41  93 E7        30.16F FOG
FORT DODGE *   CLOUDY    43  36  75 E14       30.12S
MASON CITY     CLOUDY    41  36  82 NE13      30.19S
FOREST CITY *  RAIN      41  37  87 E10       30.19S
WEBSTER CITY * MIX PCPN  41  39  93 E20G25    30.09F
IOWA FALLS *   LGT RAIN  40  39  94 NE12G17   30.13F WCI  33
$$

IAZ007>011-017>019-026>030-037>042-050>054-066-291600-
   NORTHEAST IOWA

CITY           SKY/WX    TMP DP  RH WIND       PRES   REMARKS
CEDAR RAPIDS   LGT RAIN  40  40 100 E17       30.11F FOG     WCI  31
CHARLES CITY * CLOUDY    41  39  93 E13       30.19S
CLINTON *      CLOUDY    42  39  89 E16       30.20F
DECORAH *      CLOUDY    41  37  87 E9        30.21S
DUBUQUE        CLOUDY    42  36  79 E15       30.19F
MONTICELLO *   CLOUDY    43  39  87 E10       30.17F
OELWEIN *      CLOUDY    41  41 100 E14       30.17S
WATERLOO       CLOUDY    42  37  82 E16       30.15F
$$

IAZ064-065-067-068-078-291600-
   EAST CENTRAL IOWA

CITY           SKY/WX    TMP DP  RH WIND       PRES   REMARKS
DAVENPORT      CLOUDY    42  39  89 E14       30.19F
IOWA CITY      LGT RAIN  43  41  93 E12G23    30.11F FOG
MUSCATINE *    MIX PCPN  45  41  87 E13G23    30.14F
QUAD CITIES    CLOUDY    43  39  86 E15       30.18F FOG
$$

IAZ062-063-075>077-085>089-095>099-291600-
   SOUTHEAST IOWA

CITY           SKY/WX    TMP DP  RH WIND       PRES   REMARKS
BURLINGTON     HVY RAIN  44  44 100 E10       30.12F FOG
FAIRFIELD *    CLOUDY    43  43 100 E20G29    30.05F
FORT MADISON * RAIN      45  43  93 E24G30    30.03F
KEOKUK *       MIX PCPN  45  43  93 E21G32    30.05F
OSKALOOSA *    LGT RAIN  42  41  96 E20G25    30.06F
CENTERVILLE *  LGT RAIN  41  41 100 E17G25    30.03F
OTTUMWA        LGT RAIN  43  43 100 E20       30.05F
WASHINGTON *   LGT RAIN  45  45 100 E20       30.11F
$$

ABBREVIATIONS USED IN REMARKS
   TC - TEMPERATURES IN CELSIUS
  WCI - WIND CHILL INDEX
   HX - HEAT INDEX
  VSB - VISIBILITY
$$




USA.gov is the U.S. government's official web portal to all federal, state and local government web resources and services.